Data No.,UTC Date,UTC Time,Latitude,Longitude,Course(deg),Temp(degC),Sal(psu)
749,2009/1/16,15:56:00,30-59.9400N,137-47.8100E,169,20.854,34.6386
750,2009/1/16,15:57:00,30-59.7100N,137-47.8600E,168,20.854,34.6403
751,2009/1/16,15:58:00,30-59.4800N,137-47.9200E,168,20.852,34.637
752,2009/1/16,15:59:00,30-59.2500N,137-47.9700E,167,20.852,34.6352
753,2009/1/16,16:00:00,30-59.0200N,137-48.0300E,168,20.842,34.6328
754,2009/1/16,16:01:00,30-58.7900N,137-48.0900E,168,20.829,34.6343
755,2009/1/16,16:02:00,30-58.5500N,137-48.1400E,168,20.828,34.6361
756,2009/1/16,16:03:00,30-58.3200N,137-48.2000E,168,20.824,34.6303
757,2009/1/16,16:04:00,30-58.0800N,137-48.2600E,167,20.821,34.6296
758,2009/1/16,16:05:00,30-57.8600N,137-48.3100E,168,20.82,34.6291
759,2009/1/16,16:06:00,30-57.6200N,137-48.3700E,168,20.816,34.6318
760,2009/1/16,16:07:00,30-57.3900N,137-48.4300E,168,20.806,34.6342
761,2009/1/16,16:08:00,30-57.1600N,137-48.4900E,168,20.8,34.6337
762,2009/1/16,16:09:00,30-56.9200N,137-48.5400E,168,20.792,34.636
763,2009/1/16,16:10:00,30-56.7000N,137-48.6000E,167,20.785,34.6358
764,2009/1/16,16:11:00,30-56.4600N,137-48.6600E,167,20.784,34.6351
765,2009/1/16,16:12:00,30-56.2300N,137-48.7200E,167,20.781,34.6333
766,2009/1/16,16:13:00,30-56.0000N,137-48.7700E,168,20.783,34.6312
767,2009/1/16,16:14:00,30-55.7500N,137-48.8400E,167,20.789,34.6347
768,2009/1/16,16:15:00,30-55.5200N,137-48.8900E,167,20.79,34.6332
769,2009/1/16,16:16:00,30-55.2900N,137-48.9500E,168,20.795,34.6312
770,2009/1/16,16:17:00,30-55.0500N,137-49.0000E,168,20.794,34.6314
771,2009/1/16,16:18:00,30-54.8200N,137-49.0600E,168,20.792,34.6323
772,2009/1/16,16:19:00,30-54.5900N,137-49.1100E,168,20.794,34.63
773,2009/1/16,16:20:00,30-54.3500N,137-49.1700E,168,20.793,34.6331
774,2009/1/16,16:21:00,30-54.1200N,137-49.2200E,168,20.786,34.6361
775,2009/1/16,16:22:00,30-53.8800N,137-49.2700E,169,20.782,34.6354
776,2009/1/16,16:23:00,30-53.6500N,137-49.3200E,169,20.78,34.6357
777,2009/1/16,16:24:00,30-53.4200N,137-49.3700E,170,20.769,34.6375
778,2009/1/16,16:25:00,30-53.1800N,137-49.4100E,169,20.753,34.6328
779,2009/1/16,16:26:00,30-52.9500N,137-49.4600E,169,20.711,34.6318
780,2009/1/16,16:27:00,30-52.7100N,137-49.5100E,169,20.685,34.6363
781,2009/1/16,16:28:00,30-52.4800N,137-49.5700E,168,20.683,34.6384
782,2009/1/16,16:29:00,30-52.2400N,137-49.6200E,168,20.674,34.6298
783,2009/1/16,16:30:00,30-52.0100N,137-49.6800E,167,20.672,34.641
784,2009/1/16,16:31:00,30-51.7700N,137-49.7400E,167,20.668,34.642
785,2009/1/16,16:32:00,30-51.5300N,137-49.8000E,166,20.666,34.644
786,2009/1/16,16:33:00,30-51.3000N,137-49.8700E,164,20.679,34.6457
787,2009/1/16,16:34:00,30-51.0500N,137-49.9500E,165,20.735,34.647
788,2009/1/16,16:35:00,30-50.8100N,137-50.0200E,166,20.755,34.6383
789,2009/1/16,16:36:00,30-50.5700N,137-50.0800E,166,20.762,34.6407
790,2009/1/16,16:37:00,30-50.3300N,137-50.1500E,167,20.759,34.6149
791,2009/1/16,16:38:00,30-50.1000N,137-50.2100E,167,20.748,34.6372
792,2009/1/16,16:39:00,30-49.8700N,137-50.2700E,167,20.758,34.6369
793,2009/1/16,16:40:00,30-49.6300N,137-50.3300E,166,20.762,34.6378
794,2009/1/16,16:41:00,30-49.3900N,137-50.3900E,167,20.759,34.6369
795,2009/1/16,16:42:00,30-49.1500N,137-50.4500E,167,20.749,34.6385
796,2009/1/16,16:43:00,30-48.9200N,137-50.5100E,167,20.736,34.638
797,2009/1/16,16:44:00,30-48.6800N,137-50.5700E,168,20.717,34.6312
798,2009/1/16,16:45:00,30-48.4400N,137-50.6300E,166,20.699,34.6388
799,2009/1/16,16:46:00,30-48.2100N,137-50.6900E,167,20.704,34.6393
800,2009/1/16,16:47:00,30-47.9700N,137-50.7500E,167,20.708,34.6381
801,2009/1/16,16:48:00,30-47.7400N,137-50.8100E,167,20.716,34.636
802,2009/1/16,16:49:00,30-47.5000N,137-50.8700E,167,20.718,34.6368
803,2009/1/16,16:50:00,30-47.2700N,137-50.9300E,167,20.723,34.6372
804,2009/1/16,16:51:00,30-47.0300N,137-50.9900E,167,20.731,34.6344
805,2009/1/16,16:52:00,30-46.8000N,137-51.0500E,168,20.74,34.6357
806,2009/1/16,16:53:00,30-46.5600N,137-51.1100E,167,20.748,34.6323
808,2009/1/16,16:55:00,30-46.0800N,137-51.2200E,168,20.765,34.6361
809,2009/1/16,16:56:00,30-45.8500N,137-51.2800E,167,20.769,34.6411
810,2009/1/16,16:57:00,30-45.6200N,137-51.3300E,168,20.76,34.637
811,2009/1/16,16:58:00,30-45.3900N,137-51.3900E,168,20.756,34.6389
812,2009/1/16,16:59:00,30-45.1500N,137-51.4400E,171,20.741,34.6339
813,2009/1/16,17:00:00,30-44.9200N,137-51.4800E,171,20.731,34.6351
814,2009/1/16,17:01:00,30-44.6900N,137-51.5100E,171,20.728,34.6107
815,2009/1/16,17:02:00,30-44.4600N,137-51.5500E,172,20.727,34.6301
816,2009/1/16,17:03:00,30-44.2300N,137-51.5900E,172,20.724,34.6287
817,2009/1/16,17:04:00,30-44.0100N,137-51.6200E,172,20.726,34.6325
818,2009/1/16,17:05:00,30-43.7700N,137-51.6600E,172,20.729,34.6334
819,2009/1/16,17:06:00,30-43.5400N,137-51.7000E,172,20.726,34.6343
820,2009/1/16,17:07:00,30-43.3200N,137-51.7300E,172,20.726,34.6332
821,2009/1/16,17:08:00,30-43.0900N,137-51.7700E,172,20.734,34.6317
822,2009/1/16,17:09:00,30-42.8600N,137-51.8000E,173,20.739,34.6289
823,2009/1/16,17:10:00,30-42.6300N,137-51.8300E,173,20.738,34.6319
824,2009/1/16,17:11:00,30-42.4000N,137-51.8700E,172,20.748,34.6344
825,2009/1/16,17:12:00,30-42.1800N,137-51.9000E,172,20.747,34.6335
826,2009/1/16,17:13:00,30-41.9500N,137-51.9300E,172,20.753,34.6316
827,2009/1/16,17:14:00,30-41.7200N,137-51.9700E,172,20.758,34.6349
829,2009/1/16,17:16:00,30-41.2600N,137-52.0500E,172,20.752,34.6352
830,2009/1/16,17:17:00,30-41.0200N,137-52.0800E,172,20.754,34.6348
831,2009/1/16,17:18:00,30-40.8000N,137-52.1100E,172,20.759,34.6337
832,2009/1/16,17:19:00,30-40.5700N,137-52.1500E,172,20.757,34.6339
833,2009/1/16,17:20:00,30-40.3500N,137-52.1800E,172,20.756,34.6311
834,2009/1/16,17:21:00,30-40.1200N,137-52.2200E,173,20.76,34.6337
835,2009/1/16,17:22:00,30-39.9000N,137-52.2500E,173,20.758,34.6354
836,2009/1/16,17:23:00,30-39.6700N,137-52.2800E,173,20.755,34.6343
837,2009/1/16,17:24:00,30-39.4400N,137-52.3100E,173,20.757,34.6338
838,2009/1/16,17:25:00,30-39.2100N,137-52.3400E,173,20.754,34.6337
839,2009/1/16,17:26:00,30-38.9800N,137-52.3800E,173,20.75,34.5988
840,2009/1/16,17:27:00,30-38.7500N,137-52.4100E,173,20.745,34.6366
841,2009/1/16,17:28:00,30-38.5300N,137-52.4400E,173,20.738,34.6307
842,2009/1/16,17:29:00,30-38.3000N,137-52.4700E,173,20.736,34.6372
843,2009/1/16,17:30:00,30-38.0600N,137-52.5000E,172,20.73,34.6337
844,2009/1/16,17:31:00,30-37.8300N,137-52.5300E,173,20.709,34.6369
845,2009/1/16,17:32:00,30-37.6000N,137-52.5700E,173,20.695,34.6345
846,2009/1/16,17:33:00,30-37.3600N,137-52.6000E,173,20.685,34.6337
847,2009/1/16,17:34:00,30-37.1300N,137-52.6300E,173,20.694,34.6376
848,2009/1/16,17:35:00,30-36.8900N,137-52.6600E,174,20.697,34.6382
849,2009/1/16,17:36:00,30-36.6400N,137-52.7000E,173,20.694,34.639
850,2009/1/16,17:37:00,30-36.4000N,137-52.7300E,173,20.701,34.6373
851,2009/1/16,17:38:00,30-36.1700N,137-52.7600E,173,20.695,34.6309
852,2009/1/16,17:39:00,30-35.9300N,137-52.7900E,173,20.696,34.6384
853,2009/1/16,17:40:00,30-35.7000N,137-52.8200E,173,20.698,34.6375
854,2009/1/16,17:41:00,30-35.4600N,137-52.8500E,173,20.701,34.6372
855,2009/1/16,17:42:00,30-35.2200N,137-52.8900E,173,20.707,34.6371
856,2009/1/16,17:43:00,30-34.9900N,137-52.9200E,173,20.709,34.6375
857,2009/1/16,17:44:00,30-34.7600N,137-52.9500E,173,20.711,34.6275
858,2009/1/16,17:45:00,30-34.5200N,137-52.9800E,173,20.716,34.638
859,2009/1/16,17:46:00,30-34.2800N,137-53.0100E,173,20.716,34.6347
860,2009/1/16,17:47:00,30-34.0500N,137-53.0400E,174,20.723,34.6367
862,2009/1/16,17:49:00,30-33.5800N,137-53.1000E,174,20.732,34.6374
863,2009/1/16,17:50:00,30-33.3400N,137-53.1300E,174,20.733,34.6344
864,2009/1/16,17:51:00,30-33.1100N,137-53.1600E,174,20.741,34.6385
865,2009/1/16,17:52:00,30-32.8700N,137-53.1900E,174,20.745,34.6345
866,2009/1/16,17:53:00,30-32.6400N,137-53.2100E,174,20.75,34.6328
867,2009/1/16,17:54:00,30-32.4000N,137-53.2400E,174,20.754,34.6357
868,2009/1/16,17:55:00,30-32.1700N,137-53.2700E,173,20.75,34.6358
869,2009/1/16,17:56:00,30-31.9200N,137-53.3000E,174,20.746,34.6365
870,2009/1/16,17:57:00,30-31.6900N,137-53.3300E,174,20.744,34.6366
871,2009/1/16,17:58:00,30-31.4500N,137-53.3500E,174,20.736,34.6355
872,2009/1/16,17:59:00,30-31.2200N,137-53.3800E,174,20.736,34.6386
873,2009/1/16,18:00:00,30-30.9900N,137-53.4100E,174,20.733,34.6361
874,2009/1/16,18:01:00,30-30.7500N,137-53.4300E,174,20.727,34.6371
875,2009/1/16,18:02:00,30-30.5200N,137-53.4600E,174,20.723,34.6366
876,2009/1/16,18:03:00,30-30.2900N,137-53.4800E,174,20.715,34.635
877,2009/1/16,18:04:00,30-30.0600N,137-53.5100E,173,20.706,34.6299
878,2009/1/16,18:05:00,30-29.8200N,137-53.5400E,174,20.702,34.6343
879,2009/1/16,18:06:00,30-29.5900N,137-53.5600E,174,20.706,34.637
880,2009/1/16,18:07:00,30-29.3500N,137-53.5900E,175,20.702,34.6424
882,2009/1/16,18:09:00,30-28.8900N,137-53.6400E,174,20.665,34.6388
883,2009/1/16,18:10:00,30-28.6600N,137-53.6600E,174,20.635,34.6447
884,2009/1/16,18:11:00,30-28.4200N,137-53.6900E,173,20.582,34.6437
885,2009/1/16,18:12:00,30-28.1900N,137-53.7200E,172,20.552,34.6451
886,2009/1/16,18:13:00,30-27.9600N,137-53.7600E,173,20.544,34.6464
887,2009/1/16,18:14:00,30-27.7200N,137-53.8000E,170,20.535,34.6494
888,2009/1/16,18:15:00,30-27.4900N,137-53.8500E,169,20.53,34.6506
889,2009/1/16,18:16:00,30-27.2300N,137-53.9000E,169,20.523,34.6514
890,2009/1/16,18:17:00,30-27.0000N,137-53.9500E,169,20.517,34.6472
891,2009/1/16,18:18:00,30-26.7600N,137-54.0000E,169,20.52,34.6485
892,2009/1/16,18:19:00,30-26.5400N,137-54.0600E,168,20.518,34.6442
893,2009/1/16,18:20:00,30-26.3000N,137-54.1100E,168,20.508,34.6428
894,2009/1/16,18:21:00,30-26.0600N,137-54.1600E,169,20.503,34.6427
895,2009/1/16,18:22:00,30-25.8300N,137-54.2100E,168,20.494,34.6368
896,2009/1/16,18:23:00,30-25.5900N,137-54.2700E,169,20.487,34.6363
897,2009/1/16,18:24:00,30-25.3600N,137-54.3200E,168,20.484,34.6336
898,2009/1/16,18:25:00,30-25.1300N,137-54.3800E,167,20.478,34.6382
899,2009/1/16,18:26:00,30-24.8900N,137-54.4400E,167,20.483,34.6337
901,2009/1/16,18:28:00,30-24.4200N,137-54.5500E,168,20.49,34.637
902,2009/1/16,18:29:00,30-24.1800N,137-54.6000E,168,20.495,34.6369
903,2009/1/16,18:30:00,30-23.9500N,137-54.6500E,168,20.503,34.6315
904,2009/1/16,18:31:00,30-23.7100N,137-54.7000E,169,20.505,34.6348
905,2009/1/16,18:32:00,30-23.4800N,137-54.7500E,170,20.518,34.6333
906,2009/1/16,18:33:00,30-23.2400N,137-54.8000E,170,20.519,34.6349
907,2009/1/16,18:34:00,30-23.0000N,137-54.8400E,170,20.514,34.6325
909,2009/1/16,18:36:00,30-22.5100N,137-54.9400E,170,20.517,34.6321
910,2009/1/16,18:37:00,30-22.2800N,137-54.9800E,170,20.516,34.6326
911,2009/1/16,18:38:00,30-22.0400N,137-55.0300E,170,20.513,34.6035
912,2009/1/16,18:39:00,30-21.8100N,137-55.0700E,170,20.51,34.6309
913,2009/1/16,18:40:00,30-21.5700N,137-55.1200E,170,20.516,34.6302
914,2009/1/16,18:41:00,30-21.3300N,137-55.1700E,170,20.517,34.6293
915,2009/1/16,18:42:00,30-21.1000N,137-55.2100E,169,20.526,34.6195
916,2009/1/16,18:43:00,30-20.8600N,137-55.2600E,170,20.519,34.6322
917,2009/1/16,18:44:00,30-20.6300N,137-55.3000E,170,20.52,34.633
918,2009/1/16,18:45:00,30-20.3800N,137-55.3500E,170,20.516,34.6366
919,2009/1/16,18:46:00,30-20.1500N,137-55.4000E,170,20.512,34.6348
920,2009/1/16,18:47:00,30-19.9100N,137-55.4400E,170,20.507,34.6377
921,2009/1/16,18:48:00,30-19.6700N,137-55.4900E,169,20.494,34.6369
922,2009/1/16,18:49:00,30-19.4300N,137-55.5400E,170,20.5,34.637
923,2009/1/16,18:50:00,30-19.1900N,137-55.5900E,169,20.508,34.6358
924,2009/1/16,18:51:00,30-18.9600N,137-55.6300E,170,20.511,34.6374
925,2009/1/16,18:52:00,30-18.7200N,137-55.6800E,170,20.506,34.6361
926,2009/1/16,18:53:00,30-18.4900N,137-55.7300E,169,20.508,34.6378
927,2009/1/16,18:54:00,30-18.2500N,137-55.7900E,168,20.523,34.6367
928,2009/1/16,18:55:00,30-18.0100N,137-55.8400E,168,20.534,34.6333
929,2009/1/16,18:56:00,30-17.7500N,137-55.9000E,169,20.539,34.6342
930,2009/1/16,18:57:00,30-17.5200N,137-55.9500E,168,20.539,34.6123
931,2009/1/16,18:58:00,30-17.2800N,137-56.0000E,169,20.541,34.632
932,2009/1/16,18:59:00,30-17.0400N,137-56.0600E,168,20.548,34.6302
933,2009/1/16,19:00:00,30-16.8000N,137-56.1100E,169,20.554,34.6289
934,2009/1/16,19:01:00,30-16.5700N,137-56.1700E,169,20.561,34.6294
935,2009/1/16,19:02:00,30-16.3300N,137-56.2200E,168,20.567,34.6285
936,2009/1/16,19:03:00,30-16.1000N,137-56.2700E,169,20.57,34.5882
937,2009/1/16,19:04:00,30-15.8600N,137-56.3200E,168,20.574,34.6221
938,2009/1/16,19:05:00,30-15.6300N,137-56.3800E,167,20.571,34.6307
939,2009/1/16,19:06:00,30-15.3900N,137-56.4400E,167,20.565,34.6267
940,2009/1/16,19:07:00,30-15.1500N,137-56.4900E,168,20.555,34.6233
941,2009/1/16,19:08:00,30-14.9100N,137-56.5400E,169,20.547,34.6288
942,2009/1/16,19:09:00,30-14.6700N,137-56.6000E,168,20.548,34.629
943,2009/1/16,19:10:00,30-14.4200N,137-56.6500E,168,20.542,34.6292
944,2009/1/16,19:11:00,30-14.1800N,137-56.7100E,167,20.539,34.6275
945,2009/1/16,19:12:00,30-13.9500N,137-56.7700E,167,20.552,34.631
946,2009/1/16,19:13:00,30-13.7100N,137-56.8200E,168,20.562,34.6302
947,2009/1/16,19:14:00,30-13.4700N,137-56.8800E,168,20.576,34.6213
948,2009/1/16,19:15:00,30-13.2200N,137-56.9400E,168,20.588,34.6271
949,2009/1/16,19:16:00,30-12.9900N,137-57.0000E,167,20.606,34.6273
950,2009/1/16,19:17:00,30-12.7300N,137-57.0700E,168,20.621,34.626
951,2009/1/16,19:18:00,30-12.4900N,137-57.1300E,167,20.631,34.6223
952,2009/1/16,19:19:00,30-12.2500N,137-57.1900E,167,20.653,34.6229
953,2009/1/16,19:20:00,30-12.0100N,137-57.2500E,167,20.67,34.6222
954,2009/1/16,19:21:00,30-11.7700N,137-57.3100E,167,20.687,34.6181
955,2009/1/16,19:22:00,30-11.5300N,137-57.3700E,167,20.695,34.6199
956,2009/1/16,19:23:00,30-11.2900N,137-57.4300E,167,20.697,34.6155
957,2009/1/16,19:24:00,30-11.0500N,137-57.5000E,167,20.701,34.6177
958,2009/1/16,19:25:00,30-10.8100N,137-57.5600E,167,20.706,34.6179
959,2009/1/16,19:26:00,30-10.5700N,137-57.6200E,167,20.709,34.6116
960,2009/1/16,19:27:00,30-10.3300N,137-57.6800E,167,20.716,34.6152
961,2009/1/16,19:28:00,30-10.0800N,137-57.7300E,168,20.718,34.6129
962,2009/1/16,19:29:00,30-09.8500N,137-57.7900E,168,20.726,34.6112
963,2009/1/16,19:30:00,30-09.6000N,137-57.8500E,168,20.731,34.6132
964,2009/1/16,19:31:00,30-09.3600N,137-57.9100E,168,20.734,34.6126
965,2009/1/16,19:32:00,30-09.1200N,137-57.9600E,168,20.747,34.6102
966,2009/1/16,19:33:00,30-08.8800N,137-58.0100E,169,20.753,34.612
967,2009/1/16,19:34:00,30-08.6400N,137-58.0700E,168,20.761,34.6098
968,2009/1/16,19:35:00,30-08.4000N,137-58.1200E,168,20.768,34.6134
969,2009/1/16,19:36:00,30-08.1600N,137-58.1800E,168,20.761,34.6147
970,2009/1/16,19:37:00,30-07.9000N,137-58.2400E,168,20.758,34.6097
971,2009/1/16,19:38:00,30-07.6600N,137-58.3000E,167,20.751,34.6119
972,2009/1/16,19:39:00,30-07.4100N,137-58.3600E,168,20.743,34.6123
973,2009/1/16,19:40:00,30-07.1700N,137-58.4200E,168,20.736,34.609
974,2009/1/16,19:41:00,30-06.9300N,137-58.4800E,167,20.731,34.6075
975,2009/1/16,19:42:00,30-06.6900N,137-58.5400E,168,20.723,34.6096
977,2009/1/16,19:44:00,30-06.2100N,137-58.6500E,168,20.726,34.6115
978,2009/1/16,19:45:00,30-05.9700N,137-58.7100E,168,20.728,34.5995
979,2009/1/16,19:46:00,30-05.7300N,137-58.7600E,169,20.738,34.6136
980,2009/1/16,19:47:00,30-05.4900N,137-58.8200E,168,20.745,34.6139
981,2009/1/16,19:48:00,30-05.2500N,137-58.8700E,169,20.743,34.613
983,2009/1/16,19:50:00,30-04.7700N,137-58.9700E,169,20.741,34.6111
984,2009/1/16,19:51:00,30-04.5200N,137-59.0300E,168,20.738,34.612
985,2009/1/16,19:52:00,30-04.2900N,137-59.0800E,169,20.739,34.6137
986,2009/1/16,19:53:00,30-04.0500N,137-59.1300E,169,20.745,34.6124
987,2009/1/16,19:54:00,30-03.8100N,137-59.1900E,168,20.746,34.6126
988,2009/1/16,19:55:00,30-03.5800N,137-59.2400E,168,20.741,34.6115
989,2009/1/16,19:56:00,30-03.3400N,137-59.2900E,169,20.736,34.6084
990,2009/1/16,19:57:00,30-03.0800N,137-59.3500E,168,20.715,34.6158
991,2009/1/16,19:58:00,30-02.8400N,137-59.4000E,168,20.702,34.6125
992,2009/1/16,19:59:00,30-02.6100N,137-59.4600E,167,20.702,34.6197
993,2009/1/16,20:00:00,30-02.3800N,137-59.5200E,167,20.709,34.6211
994,2009/1/16,20:01:00,30-02.1400N,137-59.5800E,167,20.708,34.619
995,2009/1/16,20:02:00,30-01.9000N,137-59.6400E,167,20.71,34.6205
996,2009/1/16,20:03:00,30-01.6700N,137-59.6900E,168,20.711,34.6174
997,2009/1/16,20:04:00,30-01.4300N,137-59.7500E,168,20.712,34.6128
998,2009/1/16,20:05:00,30-01.1900N,137-59.8000E,169,20.716,34.5848
999,2009/1/16,20:06:00,30-00.9500N,137-59.8600E,169,20.726,34.6158
1000,2009/1/16,20:07:00,30-00.7100N,137-59.9100E,168,20.734,34.6119
1001,2009/1/16,20:08:00,30-00.4700N,137-59.9700E,168,20.741,34.6132
1002,2009/1/16,20:09:00,30-00.2400N,138-00.0200E,168,20.746,34.6137
1003,2009/1/16,20:10:00,30-00.0000N,138-00.0800E,168,20.748,34.6139
1004,2009/1/16,20:11:00,29-59.7600N,138-00.1300E,169,20.75,34.6119
1005,2009/1/16,20:12:00,29-59.5200N,138-00.1800E,169,20.745,34.6096
1006,2009/1/16,20:13:00,29-59.2800N,138-00.2300E,169,20.746,34.609
1007,2009/1/16,20:14:00,29-59.0400N,138-00.2900E,169,20.742,34.6139
1008,2009/1/16,20:15:00,29-58.8000N,138-00.3400E,169,20.742,34.6143
1009,2009/1/16,20:16:00,29-58.5600N,138-00.3900E,169,20.741,34.6127
1010,2009/1/16,20:17:00,29-58.3200N,138-00.4400E,169,20.738,34.6086
1011,2009/1/16,20:18:00,29-58.0600N,138-00.5000E,169,20.732,34.612
1012,2009/1/16,20:19:00,29-57.8200N,138-00.5500E,169,20.733,34.5961
1013,2009/1/16,20:20:00,29-57.5800N,138-00.6000E,169,20.732,34.6138
1014,2009/1/16,20:21:00,29-57.3400N,138-00.6500E,170,20.736,34.6136
1015,2009/1/16,20:22:00,29-57.1000N,138-00.7000E,169,20.738,34.6067
1016,2009/1/16,20:23:00,29-56.8500N,138-00.7500E,169,20.74,34.6114
1017,2009/1/16,20:24:00,29-56.6200N,138-00.8000E,169,20.743,34.586
1018,2009/1/16,20:25:00,29-56.3700N,138-00.8500E,170,20.748,34.6079
1019,2009/1/16,20:26:00,29-56.1300N,138-00.8900E,171,20.755,34.6064
1020,2009/1/16,20:27:00,29-55.8900N,138-00.9400E,170,20.761,34.6031
1021,2009/1/16,20:28:00,29-55.6400N,138-00.9900E,170,20.761,34.6097
1022,2009/1/16,20:29:00,29-55.4000N,138-01.0300E,170,20.764,34.6128
1023,2009/1/16,20:30:00,29-55.1600N,138-01.0800E,170,20.762,34.6044
1024,2009/1/16,20:31:00,29-54.9200N,138-01.1300E,170,20.761,34.6134
1025,2009/1/16,20:32:00,29-54.6700N,138-01.1700E,170,20.752,34.6143
1026,2009/1/16,20:33:00,29-54.4300N,138-01.2200E,170,20.746,34.6111
1027,2009/1/16,20:34:00,29-54.1800N,138-01.2700E,170,20.741,34.6156
1028,2009/1/16,20:35:00,29-53.9400N,138-01.3200E,170,20.736,34.6173
1029,2009/1/16,20:36:00,29-53.7000N,138-01.3700E,170,20.733,34.6166
1030,2009/1/16,20:37:00,29-53.4500N,138-01.4200E,170,20.732,34.6144
1031,2009/1/16,20:38:00,29-53.2100N,138-01.4600E,170,20.728,34.6145
1032,2009/1/16,20:39:00,29-52.9500N,138-01.5200E,169,20.734,34.6093
1033,2009/1/16,20:40:00,29-52.7100N,138-01.5700E,170,20.729,34.6134
1034,2009/1/16,20:41:00,29-52.4600N,138-01.6100E,170,20.726,34.6174
1035,2009/1/16,20:42:00,29-52.2200N,138-01.6600E,170,20.735,34.6141
1036,2009/1/16,20:43:00,29-51.9800N,138-01.7100E,170,20.736,34.6172
1037,2009/1/16,20:44:00,29-51.7300N,138-01.7500E,170,20.739,34.6151
1038,2009/1/16,20:45:00,29-51.4900N,138-01.8000E,170,20.743,34.6095
1039,2009/1/16,20:46:00,29-51.2500N,138-01.8400E,170,20.742,34.6128
1040,2009/1/16,20:47:00,29-51.0000N,138-01.8900E,170,20.746,34.6133
1041,2009/1/16,20:48:00,29-50.7600N,138-01.9300E,170,20.745,34.6152
1042,2009/1/16,20:49:00,29-50.5200N,138-01.9800E,170,20.746,34.6149
1043,2009/1/16,20:50:00,29-50.2700N,138-02.0200E,171,20.752,34.6124
1044,2009/1/16,20:51:00,29-50.0300N,138-02.0700E,171,20.755,34.6122
1045,2009/1/16,20:52:00,29-49.7900N,138-02.1100E,171,20.758,34.6142
1046,2009/1/16,20:53:00,29-49.5500N,138-02.1500E,171,20.759,34.61
1047,2009/1/16,20:54:00,29-49.3100N,138-02.2000E,171,20.761,34.6123
1048,2009/1/16,20:55:00,29-49.0700N,138-02.2400E,171,20.762,34.6154
1049,2009/1/16,20:56:00,29-48.8200N,138-02.2800E,171,20.766,34.6161
1050,2009/1/16,20:57:00,29-48.5800N,138-02.3200E,171,20.763,34.6078
1051,2009/1/16,20:58:00,29-48.3400N,138-02.3700E,171,20.76,34.6159
1052,2009/1/16,20:59:00,29-48.0800N,138-02.4100E,170,20.753,34.6167
1053,2009/1/16,21:00:00,29-47.8300N,138-02.4600E,171,20.75,34.6153
1054,2009/1/16,21:01:00,29-47.5900N,138-02.5000E,171,20.747,34.6163
1055,2009/1/16,21:02:00,29-47.3500N,138-02.5400E,170,20.739,34.6118
1056,2009/1/16,21:03:00,29-47.1000N,138-02.5800E,171,20.735,34.6162
1057,2009/1/16,21:04:00,29-46.8600N,138-02.6300E,171,20.734,34.6107
1058,2009/1/16,21:05:00,29-46.6100N,138-02.6700E,171,20.726,34.6141
1059,2009/1/16,21:06:00,29-46.3600N,138-02.7100E,171,20.721,34.6148
1060,2009/1/16,21:07:00,29-46.1200N,138-02.7500E,171,20.719,34.614
1061,2009/1/16,21:08:00,29-45.8800N,138-02.7900E,171,20.719,34.6167
1062,2009/1/16,21:09:00,29-45.6300N,138-02.8300E,171,20.719,34.6112
1063,2009/1/16,21:10:00,29-45.3800N,138-02.8700E,171,20.72,34.6082
1064,2009/1/16,21:11:00,29-45.1400N,138-02.9100E,172,20.716,34.6081
1065,2009/1/16,21:12:00,29-44.9000N,138-02.9500E,172,20.716,34.6063
1066,2009/1/16,21:13:00,29-44.6500N,138-02.9900E,172,20.714,34.6032
1067,2009/1/16,21:14:00,29-44.4000N,138-03.0300E,172,20.709,34.6072
1068,2009/1/16,21:15:00,29-44.1600N,138-03.0700E,172,20.71,34.6164
1069,2009/1/16,21:16:00,29-43.9200N,138-03.1000E,172,20.706,34.6071
1070,2009/1/16,21:17:00,29-43.6700N,138-03.1400E,171,20.7,34.6109
1071,2009/1/16,21:18:00,29-43.4300N,138-03.1800E,172,20.699,34.61
1072,2009/1/16,21:19:00,29-43.1600N,138-03.2200E,171,20.699,34.5849
1073,2009/1/16,21:20:00,29-42.9100N,138-03.2600E,172,20.698,34.6082
1074,2009/1/16,21:21:00,29-42.6700N,138-03.2900E,173,20.702,34.6134
1075,2009/1/16,21:22:00,29-42.4200N,138-03.3300E,173,20.705,34.6141
1076,2009/1/16,21:23:00,29-42.1800N,138-03.3700E,172,20.704,34.6137
1077,2009/1/16,21:24:00,29-41.9300N,138-03.4000E,172,20.699,34.6098
1078,2009/1/16,21:25:00,29-41.6900N,138-03.4400E,172,20.692,34.6127
1079,2009/1/16,21:26:00,29-41.4400N,138-03.4800E,172,20.694,34.5942
1080,2009/1/16,21:27:00,29-41.1900N,138-03.5100E,172,20.691,34.6142
1081,2009/1/16,21:28:00,29-40.9500N,138-03.5500E,172,20.696,34.6124
1082,2009/1/16,21:29:00,29-40.7000N,138-03.5800E,172,20.691,34.6117
1084,2009/1/16,21:31:00,29-40.2000N,138-03.6500E,172,20.672,34.6177
1085,2009/1/16,21:32:00,29-39.9600N,138-03.6800E,173,20.667,34.6208
1086,2009/1/16,21:33:00,29-39.7100N,138-03.7200E,173,20.655,34.621
1087,2009/1/16,21:34:00,29-39.4600N,138-03.7500E,173,20.635,34.6127
1088,2009/1/16,21:35:00,29-39.2100N,138-03.7800E,172,20.614,34.6212
1089,2009/1/16,21:36:00,29-38.9700N,138-03.8200E,172,20.603,34.6207
1090,2009/1/16,21:37:00,29-38.7200N,138-03.8600E,172,20.603,34.6274
1091,2009/1/16,21:38:00,29-38.4700N,138-03.9000E,172,20.599,34.6098
1092,2009/1/16,21:39:00,29-38.2000N,138-03.9300E,172,20.594,34.637
1093,2009/1/16,21:40:00,29-37.9600N,138-03.9700E,172,20.597,34.6418
1094,2009/1/16,21:41:00,29-37.7100N,138-04.0000E,172,20.592,34.6406
1095,2009/1/16,21:42:00,29-37.4700N,138-04.0400E,172,20.59,34.6371
1096,2009/1/16,21:43:00,29-37.2300N,138-04.0700E,172,20.588,34.6408
1097,2009/1/16,21:44:00,29-36.9700N,138-04.1100E,172,20.596,34.6441
1098,2009/1/16,21:45:00,29-36.7300N,138-04.1400E,172,20.595,34.6412
1099,2009/1/16,21:46:00,29-36.4900N,138-04.1800E,173,20.594,34.6443
1100,2009/1/16,21:47:00,29-36.2400N,138-04.2100E,173,20.597,34.6437
1101,2009/1/16,21:48:00,29-36.0000N,138-04.2400E,172,20.593,34.6413
1102,2009/1/16,21:49:00,29-35.7600N,138-04.2800E,172,20.597,34.6452
1103,2009/1/16,21:50:00,29-35.5100N,138-04.3100E,173,20.601,34.6167
1104,2009/1/16,21:51:00,29-35.2700N,138-04.3500E,172,20.584,34.6435
1105,2009/1/16,21:52:00,29-35.0200N,138-04.3900E,171,20.578,34.6082
1106,2009/1/16,21:53:00,29-34.7800N,138-04.4300E,172,20.579,34.6435
1107,2009/1/16,21:54:00,29-34.5300N,138-04.4700E,171,20.59,34.643
1108,2009/1/16,21:55:00,29-34.2900N,138-04.5100E,171,20.602,34.6419